weather.gov     
National Weather Service

Regional Weather Roundup
NWS Homepage
This page is being discontinued on March 12, 2014.
The same data is available at this site. Please update your bookmarks.
Thank you, and we apologize for the inconvenience.
Please send an email to SR-SRH.Webmaster@noaa.gov with any concerns.


Current Version
Previous Version:    01  02  03  04  05  06  07  08  09  10  11  12  13  14  15  16  17  18  19  20  21  22  23  24  25  
[Printable]
587
ASUS44 KBMX 160710
RWRAL

ALABAMA REGIONAL WEATHER ROUNDUP
NATIONAL WEATHER SERVICE BIRMINGHAM AL
200 AM CDT WED APR 16 2014

NOTE: "FAIR" INDICATES FEW OR NO CLOUDS BELOW 12,000 FEET
WITH NO SIGNIFICANT WEATHER AND/OR OBSTRUCTIONS TO VISIBILITY.

THE REMARK "TC" DENOTES TEMPERATURE IN DEGREES CELSIUS.

ALZ001>011-014-016>018-020-160800-
NORTH ALABAMA

CITY           SKY/WX    TMP DP  RH WIND       PRES   REMARKS
MUSCLE SHOALS  CLEAR     39  24  55 NE7       30.26F WCI  34
HUNTSVILLE     CLEAR     36  26  67 N5        30.25S WCI  32
DECATUR        CLEAR     34  26  72 MISG      30.26S
HALEYVILLE     FAIR      31  24  75 CALM      30.24F
GADSDEN        NOT AVBL
$$

ALZ012-013-022-023-030>036-040>044-160800-
WEST CENTRAL ALABAMA

CITY           SKY/WX    TMP DP  RH WIND       PRES   REMARKS
TUSCALOOSA     CLEAR     37  29  72 N5        30.22F WCI  33
$$

ALZ015-024>027-033>036-040>044-160800-
CENTRAL ALABAMA

CITY           SKY/WX    TMP DP  RH WIND       PRES   REMARKS
BIRMINGHAM     CLEAR     37  25  61 N8        30.22F WCI  31
MONTGOMERY     CLEAR     41  31  67 N6        30.19F
SHELBY CO ARPT CLEAR     41  25  53 N9        30.19S
MAXWELL AFB    CLEAR     43  36  77 N6        30.18F
GREENVILLE     FAIR      40  31  70 NE3       30.17R
$$

ALZ019-021-028-029-037-038-045>048-160800-
EAST CENTRAL ALABAMA

CITY           SKY/WX    TMP DP  RH WIND       PRES   REMARKS
ANNISTON       CLEAR     37  27  67 E5        30.19F WCI  33
ALEXANDER CITY CLEAR     41  27  55 N6        30.17S
AUBURN         CLEAR     36  27  69 N5        30.18R WCI  32
$$

ALZ051>064-160800-
SOUTHWEST ALABAMA

CITY           SKY/WX    TMP DP  RH WIND       PRES   REMARKS
MOBILE         CLEAR     43  30  60 N9        30.17S
BROOKLEY FIELD CLEAR     45  31  58 N10       30.17S
EVERGREEN      CLEAR     38  34  85 N6        30.18F WCI  33
$$

ALZ049-050-065>069-160800-
SOUTHEAST ALABAMA

CITY           SKY/WX    TMP DP  RH WIND       PRES   REMARKS
DOTHAN         CLEAR     40  33  76 N8        30.18S WCI  34
OZARK          CLEAR     42  32  69 N9        30.16R
TROY           CLEAR     40  30  67 N6        30.18R
EUFAULA        FAIR      39  33  79 NW5       30.16R
$$




U.S. Dept. of Commerce
NOAA National Weather Service
1325 East West Highway
Silver Spring, MD 20910
E-mail: w-nws.webmaster@noaa.gov
Page last modified: May 16, 2007
NATIONAL WEATHER SERVICE: for Safety, for Work, for Fun - FOR LIFE